Location: Gleizolles
(44.4833°N, 6.7667°E)
Time: 21:10:54
(UTC+00:00)

PCSat - Pass Details

Date: 16 December 2022
Orbit: 785 x 793 km, 67.1° (Epoch: 04 February)

Event Time Altitude Azimuth Distance (km) Brightness Sun altitude
Rises 16:47:06 0° 234° (SW) 3,270 14.7 -9.2°
Reaches altitude 10° 16:49:40 10° 243° (WSW) 2,346 13.7 -9.6°
Maximum altitude 16:54:40 38° 311° (NW) 1,196 10.8 -10.4°
Drops below altitude 10° 16:59:42 10° 19° (NNE) 2,364 11.7 -11.2°
Enters shadow 17:00:59 - 24° (NNE) 2,816 12.0 -11.5°
